Valparaiso, IN

9:47 AM CDT on August 18, 2017 (GMT -0500)
Porter County Municipal

Weather History for KVPZ - June, 2013

Change the Weather History Date:

Tuesday, June 18, 2013

  Actual Average Record
Temperature  
Mean Temperature 66 °F 70 °F  
Max Temperature 75 °F 81 °F 92 °F (2001)
Min Temperature 57 °F 60 °F 45 °F (1999)
Degree Days  
Heating Degree Days 0 1  
Month to date heating degree days 37 36  
Since 1 June heating degree days 37 36  
Since 1 July heating degree days 6093 6315  
Cooling Degree Days 1 6  
Month to date cooling degree days 60 80  
Year to date cooling degree days 161 127  
Since 1 June cooling degree days 60 80  
Growing Degree Days 16 (Base 50)    
Moisture  
Dew Point 58 °F    
Average Humidity 77    
Maximum Humidity 93    
Minimum Humidity 63    
Precipitation  
Precipitation 0.00 in 0.10 in 0.95 in (2010)
Month to date precipitation 3.04 2.30  
Year to date precipitation 16.67 15.28  
Sea Level Pressure  
Sea Level Pressure 29.98 in    
Wind  
Wind Speed 7 mph (North)    
Max Wind Speed 15 mph    
Max Gust Speed 21 mph    
Visibility 10 miles    
Events      
T = Trace of Precipitation, MM = Missing Value Source: NWS Daily Summary

Daily Weather History Graph

Daily Weather History Graph

Search for Another Location

Airport or City:

Trip Planner

Search our weather history database for the weather conditions in past years. The results will help you decide how hot, cold, wet, or windy it might be!

Date:

Astronomy

Jun. 18, 2013 Rise Set
Actual Time 5:14 AM CDT 8:24 PM CDT
Civil Twilight 4:40 AM CDT 8:58 PM CDT
Nautical Twilight 3:56 AM CDT 9:42 PM CDT
Astronomical Twilight 3:04 AM CDT 10:34 PM CDT
Moon 3:05 PM CDT 1:25 AM CDT
Length of Visible Light 16h 18m
Length of Day
15h 10m
Waxing Gibbous, 71% of the Moon is Illuminated
Jun 18
Waxing Gibbous
Jun 23
Full
Jun 29
Last Quarter
Jul 8
New
Jul 15
First Quarter

Hourly Weather History & Observations

Time (CDT) Temp. Dew Point Humidity Pressure Visibility Wind Dir Wind Speed Gust Speed Precip Events Conditions
12:53 AM 64.9 °F 59.0 °F 81% 29.90 in 10.0 mi NNW 3.5 mph - N/A   Clear
1:53 AM 63.0 °F 59.0 °F 87% 29.89 in 10.0 mi Calm Calm - N/A   Clear
2:53 AM 62.1 °F 57.9 °F 86% 29.90 in 10.0 mi NNW 4.6 mph - N/A   Mostly Cloudy
3:53 AM 60.1 °F 57.0 °F 90% 29.91 in 10.0 mi NNW 5.8 mph - N/A   Scattered Clouds
4:53 AM 60.1 °F 57.0 °F 90% 29.92 in 10.0 mi North 4.6 mph - N/A   Scattered Clouds
5:53 AM 59.0 °F 57.0 °F 93% 29.94 in 10.0 mi NNW 6.9 mph - N/A   Partly Cloudy
6:53 AM 62.1 °F 57.0 °F 84% 29.96 in 10.0 mi Variable 4.6 mph - N/A   Clear
7:53 AM 64.9 °F 59.0 °F 81% 29.98 in 10.0 mi NNW 10.4 mph - N/A   Clear
8:53 AM 66.9 °F 60.1 °F 79% 29.98 in 10.0 mi NNE 10.4 mph - N/A   Scattered Clouds
9:25 AM 64.4 °F 60.8 °F 88% 29.99 in 8.0 mi North 8.1 mph - N/A   Mostly Cloudy
9:41 AM 64.4 °F 60.8 °F 88% 29.99 in 8.0 mi NNW 9.2 mph - N/A   Overcast
9:53 AM 66.0 °F 60.1 °F 81% 29.99 in 7.0 mi North 8.1 mph - N/A   Mostly Cloudy
10:20 AM 69.8 °F 60.8 °F 73% 29.99 in 8.0 mi North 8.1 mph - N/A   Partly Cloudy
10:53 AM 72.0 °F 61.0 °F 68% 29.98 in 10.0 mi Variable 3.5 mph - N/A   Clear
11:53 AM 73.9 °F 62.1 °F 66% 29.98 in 10.0 mi North 8.1 mph - N/A   Scattered Clouds
12:53 PM 72.0 °F 62.1 °F 71% 30.00 in 10.0 mi NNW 10.4 mph - N/A   Mostly Cloudy
1:53 PM 71.1 °F 61.0 °F 70% 30.00 in 10.0 mi North 6.9 mph 17.3 mph N/A   Partly Cloudy
2:53 PM 72.0 °F 60.1 °F 66% 29.99 in 10.0 mi North 8.1 mph 18.4 mph N/A   Clear
3:53 PM 71.1 °F 57.9 °F 63% 30.00 in 10.0 mi North 10.4 mph 18.4 mph N/A   Clear
4:53 PM 70.0 °F 57.0 °F 63% 30.00 in 10.0 mi NNW 12.7 mph 18.4 mph N/A   Clear
5:53 PM 69.1 °F 55.9 °F 63% 30.00 in 10.0 mi North 10.4 mph 17.3 mph N/A   Clear
6:53 PM 66.9 °F 55.0 °F 66% 30.01 in 10.0 mi NNW 8.1 mph - N/A   Clear
7:53 PM 64.0 °F 54.0 °F 70% 30.01 in 10.0 mi North 8.1 mph 17.3 mph N/A   Clear
8:53 PM 61.0 °F 53.1 °F 75% 30.03 in 10.0 mi North 5.8 mph - N/A   Clear
9:53 PM 60.1 °F 53.1 °F 78% 30.05 in 10.0 mi NNE 3.5 mph - N/A   Clear
10:53 PM 60.1 °F 53.1 °F 78% 30.04 in 10.0 mi NNE 4.6 mph - N/A   Clear
11:53 PM 60.1 °F 53.1 °F 78% 30.05 in 10.0 mi NE 5.8 mph - N/A   Clear